Probability
0 0 0 0 0 0 0 0 0 0 0 1 2 4 5 4 3 1 0 0 0 0 0 0 0 0 0 0 0 0 0 0 0 0 0 0 0 0 0 0 0 0 0
0 0 0 0 0 0 0 0 0 0 0 0 1 3 3 2 1 0 0 0 0 0 0 0 0 0 0 0 0 0 0 0 0 0 0 0 0 0 0 0 0 0 0
0 0 0 0 0 0 0 0 0 0 0 0 0 1 1 0 0 0 0 0 0 0 0 0 0 0 0 0 0 0 0 0 0 0 0 0 0 0 0 0 0 0 0
0 0 0 0 0 0 0 0 0 0 0 0 0 0 0 0 0 0 0 0 0 0 0 0 0 0 0 0 0 0 0 0 0 0 0 0 0 0 0 0 0 0 0
0 0 0 0 0 0 0 0 0 0 0 0 0 0 0 0 0 0 0 0 0 0 0 0 0 0 0 0 0 0 0 0 0 0 0 0 0 0 0 0 0 0 0
0 0 0 0 0 0 0 0 0 0 0 0 0 0 0 0 0 0 0 0 0 0 0 0 0 0 0 0 0 0 0 0 0 0 0 0 0 0 0 0 0 0 0
0 0 0 0 0 0 0 0 0 0 0 0 0 0 0 0 0 0 0 0 0 0 0 0 0 0 0 0 0 0 0 0 0 0 0 0 0 0 0 0 0 0 0
0 0 0 0 0 0 0 0 0 0 0 0 0 0 0 0 0 0 0 0 0 0 0 0 0 0 0 0 0 0 0 0 0 0 0 0 0 0 0 0 0 0 0
0 0 0 0 0 0 0 0 0 0 0 0 0 0 0 0 0 0 0 0 0 0 0 0 0 0 0 0 0 0 0 0 0 0 0 0 0 0 0 0 0 0 0
0 0 0 0 0 0 0 0 0 0 0 0 0 0 0 0 0 0 0 0 0 0 0 0 0 0 0 0 0 0 0 0 0 0 0 0 0 0 0 0 0 0 0
0 0 0 0 0 0 0 0 0 0 0 0 0 0 0 0 0 0 0 0 0 0 0 0 0 0 0 0 0 0 0 0 0 0 0 0 0 0 0 0 0 0 0
0 0 0 0 0 0 0 0 0 0 0 0 0 0 0 0 0 0 0 0 0 0 0 0 0 0 0 0 0 0 0 0 0 0 0 0 0 0 0 0 0 0 0
0 0 0 0 0 0 0 0 0 0 0 0 0 0 0 0 0 0 0 0 0 0 0 0 0 0 0 0 0 0 0 0 0 0 0 0 0 0 0 0 0 0 0
0 0 0 0 0 0 0 0 0 0 0 0 0 0 0 0 0 0 0 0 0 0 0 0 0 0 0 0 0 0 0 0 0 0 0 0 0 0 0 0 0 0 0
0 0 0 0 0 0 0 0 0 0 0 0 0 0 0 0 0 0 0 0 0 0 0 0 0 0 0 0 0 0 0 0 0 0 0 0 0 0 0 0 0 0 0
0 0 0 0 0 0 0 0 0 0 0 0 0 0 0 0 0 0 0 0 0 0 0 0 0 0 0 0 0 0 0 0 0 0 0 0 0 0 0 0 0 0 0
0 0 0 0 0 0 0 0 0 0 0 0 0 0 0 0 0 0 0 0 0 0 0 0 0 0 0 0 0 0 0 0 0 0 0 0 0 0 0 0 0 0 0
0 0 0 0 0 0 0 0 0 0 0 0 0 0 0 0 0 0 0 0 0 0 0 0 0 0 0 0 0 0 0 0 0 0 0 0 0 0 0 0 0 0 0
0 0 0 0 0 0 0 0 0 0 0 0 0 0 0 0 0 0 0 0 0 0 0 0 0 0 0 0 0 0 0 0 0 0 0 0 0 0 0 0 0 0 0
0 0 0 0 0 0 0 0 0 0 0 0 0 0 0 0 0 0 0 0 0 0 0 0 0 0 0 0 0 0 0 0 0 0 0 0 0 0 0 0 0 0 0
0 0 0 0 0 0 0 0 0 0 0 0 0 0 0 0 0 0 0 0 0 0 0 0 0 0 0 0 0 0 0 0 0 0 0 0 0 0 0 0 0 0 0
0 0 0 0 0 0 0 0 0 0 0 0 0 0 0 0 0 0 0 0 0 0 0 0 0 0 0 0 0 0 0 0 0 0 0 0 0 0 0 0 0 0 0
0 0 0 0 0 0 0 0 0 0 0 0 0 0 0 0 0 0 0 0 0 0 0 0 0 0 0 0 0 0 0 0 0 0 0 0 0 0 0 0 0 0 0
0 0 0 0 0 0 0 0 0 0 0 0 0 0 0 0 0 0 0 0 0 0 0 0 0 0 0 0 0 0 0 0 0 0 0 0 0 0 0 0 0 0 0
0 0 0 0 0 0 0 0 0 0 0 0 0 0 0 0 0 0 0 0 0 0 0 0 0 0 0 0 0 0 0 0 0 0 0 0 0 0 0 0 0 0 0
0 0 0 0 0 0 0 0 0 0 0 0 0 0 0 0 0 0 0 0 0 0 0 0 0 0 0 0 0 0 0 0 0 0 0 0 0 0 0 0 0 0 0
Wind_Speed
9 9 8 7 7 6 5 5 4 3 2 2 2 3 4 5 6 7 8 9 10 9 8 9 9 8 6 5 5 4 3 3 2 1 2 2 4 6 6 7 8 9 9
9 8 8 7 7 6 6 5 4 4 3 3 3 5 6 7 7 9 10 10 11 11 10 10 9 7 7 5 4 4 3 2 1 2 3 3 6 7 8 9 8 8 9
8 8 8 8 8 8 8 7 7 7 7 7 7 7 8 8 9 9 10 10 10 10 10 10 9 8 7 4 4 3 2 2 2 3 3 4 5 5 7 8 9 9 9
8 9 9 10 9 9 10 10 10 10 10 10 10 10 10 10 10 11 11 11 11 10 9 8 7 6 6 5 3 3 2 3 4 4 4 5 5 6 6 7 8 8 9
8 9 9 9 10 10 11 11 11 11 11 11 11 11 11 10 10 11 11 11 11 10 9 8 6 6 5 3 2 2 3 3 3 4 4 5 5 5 6 6 8 9 10
9 9 9 9 10 10 11 11 12 12 11 12 11 11 11 10 16 17 12 10 9 9 8 7 6 5 4 2 0 2 3 3 4 4 5 6 7 7 7 7 8 9 9
8 8 8 9 10 10 10 11 11 11 11 11 11 12 12 14 17 17 15 10 8 7 6 5 3 3 2 0 1 2 2 4 6 6 7 8 8 7 8 9 9 10 11
8 8 8 8 9 9 10 10 10 9 9 9 10 10 10 12 16 15 14 9 7 6 4 3 2 1 1 3 3 3 4 5 5 6 7 8 8 8 9 10 11 11 12
7 7 7 7 8 9 9 9 8 8 9 8 8 9 9 10 12 11 8 5 4 4 3 2 2 2 3 5 4 4 6 6 5 8 11 12 14 14 12 8 8 8 10
7 7 7 7 8 8 8 8 7 7 8 8 8 8 7 7 9 9 5 3 3 2 1 2 2 4 6 6 5 5 6 6 6 7 8 9 9 9 10 8 7 7 7
6 7 7 7 7 7 7 7 7 7 7 7 7 6 7 7 7 7 5 3 2 2 2 2 2 6 7 8 7 6 7 9 8 7 7 7 6 5 5 5 5 6 8
6 7 7 7 6 6 7 6 6 6 6 6 5 5 4 5 5 6 6 5 4 3 3 3 4 7 8 8 7 7 9 8 5 5 6 6 5 5 5 6 8 9 10
7 7 6 6 6 5 6 6 5 4 4 3 3 3 3 3 3 5 5 5 6 4 3 5 7 8 8 6 5 7 7 4 5 5 6 6 6 7 7 7 8 9 11
7 6 5 6 6 5 4 4 3 3 3 2 2 2 1 1 2 2 3 3 3 3 3 4 6 6 5 5 5 4 3 4 5 6 6 6 6 7 7 7 7 8 8
6 6 5 5 5 5 4 4 3 3 3 2 2 1 1 2 3 6 5 4 4 5 5 4 4 3 3 3 3 3 3 4 4 5 6 6 7 7 7 6 6 7 7
6 5 4 3 3 3 4 4 5 4 4 4 2 2 1 3 5 6 6 7 7 7 5 4 4 4 4 4 5 5 4 4 4 5 6 6 7 7 8 7 7 8 9
6 5 4 3 3 3 2 2 2 3 3 3 3 3 3 4 5 6 7 7 5 5 4 4 4 4 4 4 5 5 5 5 5 6 6 7 7 7 8 8 8 8 9
6 5 4 3 3 3 2 1 1 0 1 0 1 3 4 5 5 6 6 6 3 3 3 4 4 4 5 5 5 6 6 6 6 6 7 7 7 8 8 9 9 10 10
5 4 4 3 3 2 2 2 1 1 1 2 2 2 3 5 5 4 4 3 4 4 4 4 4 5 5 5 6 6 7 7 7 7 7 8 7 8 8 9 9 14 13
5 6 5 4 3 3 2 2 2 2 2 2 3 3 3 4 3 3 3 3 4 4 5 5 5 5 6 6 6 6 7 7 8 7 8 8 8 8 9 11 10 11 11
5 6 7 4 3 3 3 3 2 2 3 3 3 3 6 5 4 5 4 4 4 5 5 5 6 6 6 6 6 7 9 8 8 8 8 8 8 9 9 10 11 11 11
5 5 5 4 4 3 3 3 3 3 3 4 3 4 6 4 4 4 5 5 5 5 5 6 6 6 6 6 7 7 8 9 9 8 8 8 9 9 10 10 11 11 11
6 6 5 4 4 4 4 3 3 3 3 4 4 4 4 4 4 5 5 5 5 6 5 6 7 7 7 6 7 8 9 9 9 9 9 10 10 10 10 11 13 14 13
6 6 6 5 4 4 4 4 3 4 4 4 4 4 4 5 5 6 6 6 6 6 6 6 7 10 12 10 8 8 9 10 10 10 13 13 13 12 11 12 13 15 14
6 6 6 5 5 4 4 4 4 4 4 4 4 4 5 5 6 6 6 6 7 7 9 9 7 9 11 13 13 11 15 20 19 14 13 12 14 14 13 14 13 14 14
7 7 6 5 5 5 4 4 4 4 4 4 4 5 5 5 6 6 6 6 6 7 8 8 9 11 13 13 14 17 19 21 22 22 15 12 13 12 13 12 16 15 15
Wind_Direction
347 343 340 339 337 332 326 323 317 311 300 267 213 174 154 146 144 140 138 139 135 129 129 127 120 119 112 100 93 92 86 93 147 171 187 200 233 254 263 268 274 279 281
354 355 358 0 3 6 8 9 16 30 42 61 97 111 113 119 124 128 129 129 129 127 125 120 117 113 105 103 106 108 108 113 166 223 219 225 246 262 273 277 279 279 279
8 15 21 23 25 28 31 35 44 55 63 70 80 89 95 101 105 109 112 112 110 111 115 116 117 117 115 114 115 120 129 155 198 235 248 246 255 262 275 277 279 280 281
26 34 37 37 39 42 46 50 55 61 67 71 76 80 85 89 93 97 99 100 98 96 95 98 102 110 118 127 132 145 165 197 216 237 256 263 267 271 275 284 291 292 292
43 45 45 46 51 54 57 59 61 63 67 72 76 78 81 83 88 93 93 95 96 93 87 86 90 101 117 129 146 178 203 224 240 253 263 272 275 282 286 296 295 299 296
52 52 52 55 58 59 61 64 66 66 69 72 73 75 74 80 91 92 94 91 92 94 94 92 94 91 93 90 137 248 249 255 262 268 274 277 283 289 296 296 297 298 299
59 58 58 62 64 65 66 68 69 69 72 75 76 78 80 85 88 90 89 88 88 89 93 97 98 92 73 302 280 278 280 285 279 281 278 279 288 294 295 292 289 289 286
66 65 65 68 69 69 70 70 71 72 72 73 75 80 85 88 90 89 89 87 91 92 91 86 77 55 2 310 295 291 285 277 278 276 276 282 284 288 285 283 285 285 283
67 65 68 74 77 75 74 73 73 76 74 72 73 75 81 87 91 93 91 92 92 90 79 52 10 338 325 304 297 295 294 289 277 276 281 283 286 286 287 285 281 282 288
69 70 74 77 81 81 78 77 76 78 79 79 74 72 78 85 89 90 79 74 73 66 48 19 358 328 321 319 309 298 295 303 303 292 284 280 280 279 275 265 268 273 280
82 82 80 79 82 84 83 81 84 86 86 84 82 75 72 71 79 75 60 37 29 9 349 344 348 331 325 324 314 300 300 303 298 296 294 292 289 283 277 271 264 257 264
90 84 81 81 84 88 90 87 88 93 93 91 88 81 69 61 52 50 39 29 10 349 339 336 334 330 325 321 313 306 304 302 293 292 291 294 298 299 298 293 282 269 258
100 93 90 88 85 89 94 96 94 89 89 89 86 81 70 51 45 32 18 10 1 341 336 335 329 326 319 306 302 308 305 292 288 288 290 294 297 297 296 291 284 273 267
114 108 105 100 95 90 87 85 87 87 90 90 82 75 62 24 6 354 345 340 335 326 317 315 313 309 300 300 304 296 289 294 298 292 294 297 296 292 288 290 294 299 295
125 119 113 105 104 97 87 76 76 72 49 54 59 35 351 351 357 344 338 335 334 333 323 307 309 315 314 315 307 302 297 289 286 291 293 294 294 293 292 293 289 291 285
137 134 127 123 119 116 115 105 72 67 76 65 41 350 322 326 335 334 332 332 331 331 317 306 315 319 320 319 315 311 307 300 298 297 292 289 291 293 294 293 287 284 285
150 147 144 144 143 137 135 136 132 103 85 62 31 1 345 337 335 331 331 331 327 327 307 310 312 311 309 305 302 300 298 298 296 288 285 285 286 287 288 291 292 289 288
153 152 156 153 152 152 154 153 160 206 234 235 358 336 337 335 332 331 334 322 303 304 305 304 303 303 300 297 295 294 293 294 288 284 282 280 280 282 285 288 289 290 292
162 160 160 155 157 160 163 172 188 226 276 292 293 294 321 318 311 320 326 307 307 306 303 298 295 294 292 290 288 287 286 285 285 284 281 280 279 280 282 285 287 289 291
169 168 165 164 166 172 182 196 215 243 266 279 288 304 307 299 299 306 304 296 291 292 294 292 291 288 287 286 285 284 284 283 284 279 279 281 281 280 281 284 286 288 289
168 170 173 174 181 188 197 212 229 250 265 278 286 294 300 298 296 298 297 293 290 291 291 291 288 286 282 280 280 280 281 281 280 280 281 282 284 283 283 283 284 284 286
172 173 179 186 188 196 205 217 234 250 264 272 282 287 294 287 284 287 290 291 289 285 284 284 283 281 280 279 279 280 279 279 280 280 280 282 283 283 284 283 283 286 289
176 177 181 188 193 202 208 221 234 247 259 269 278 283 284 284 287 288 289 290 290 286 283 278 278 279 277 274 271 271 272 275 278 283 286 285 284 283 283 284 286 289 290
181 184 187 189 195 206 216 226 236 247 258 266 272 276 280 283 285 286 287 287 288 286 283 279 275 278 281 282 277 272 268 272 277 275 274 273 277 280 282 284 287 289 291
185 187 191 194 199 208 217 228 237 246 254 261 267 273 278 280 282 285 285 284 285 283 284 284 278 279 281 282 281 279 279 283 284 281 277 276 279 282 286 289 290 293 292
188 191 193 195 201 208 216 227 236 245 252 258 263 268 273 276 279 281 283 282 284 285 286 284 281 283 286 286 284 284 287 291 293 293 292 287 287 287 290 290 293 294 293